Probability
0 0 0 0 0 0 0 0 0 0 0 0 0 0 0 0 0 0 0 0 0 0 0 0 0 0 0 0 0 0 0 0 0 0 0 0 0 0 0 0 0 0 0 0
0 0 0 0 0 0 0 0 0 0 0 0 0 0 0 0 0 0 0 0 0 0 0 0 0 0 0 0 0 0 0 0 0 0 0 0 0 0 0 0 0 0 0 0
0 0 0 0 0 0 0 0 0 0 0 0 0 0 0 0 0 0 0 0 0 0 0 0 0 0 0 0 0 0 0 0 0 0 0 0 0 0 0 0 0 0 0 0
0 0 0 0 0 0 0 0 0 0 0 0 0 0 0 0 0 0 0 0 0 0 0 0 0 0 0 0 0 0 0 0 0 0 0 0 0 0 0 0 0 0 0 0
0 0 0 0 0 0 0 0 0 0 0 0 0 0 0 0 0 0 0 0 0 0 0 0 0 0 0 0 0 0 0 0 0 0 0 0 0 0 0 0 0 0 0 0
0 0 0 0 0 0 0 0 0 0 0 0 0 0 0 0 0 0 0 0 0 0 0 0 0 0 0 0 0 0 0 0 0 0 0 0 0 0 0 0 0 0 0 0
0 0 0 0 0 0 0 0 0 0 0 0 0 0 0 0 0 0 0 0 0 0 0 0 0 0 0 0 0 0 0 0 0 0 0 0 0 0 0 0 0 0 0 0
0 0 0 0 0 0 0 0 0 0 0 0 0 0 0 0 0 0 0 0 0 0 0 0 0 0 0 0 0 0 0 0 0 0 0 0 0 0 0 0 0 0 0 0
0 0 0 0 0 0 0 0 0 0 0 0 0 0 0 0 0 0 0 0 0 0 0 0 0 0 0 0 0 0 0 0 0 0 0 0 0 0 0 0 0 0 0 0
0 0 0 0 0 0 0 0 0 0 0 0 0 0 0 0 0 0 0 0 0 0 0 0 0 0 0 0 0 0 0 0 0 0 0 0 0 0 0 0 0 0 0 0
0 0 0 0 0 0 0 0 0 0 0 0 0 0 0 0 0 0 0 0 0 0 0 0 0 0 0 0 0 0 0 0 0 0 0 0 0 0 0 0 0 0 0 0
0 0 0 0 0 0 0 0 0 0 0 0 0 0 0 0 0 0 0 0 0 0 0 0 0 0 0 0 0 0 0 0 0 0 0 0 0 0 0 0 0 0 0 0
0 0 0 0 0 0 0 0 0 0 0 0 0 0 0 0 0 0 0 0 0 0 0 0 0 0 0 0 0 0 0 0 0 0 0 0 0 0 0 0 0 0 0 0
0 0 0 0 0 0 0 0 0 0 0 0 0 0 0 0 0 0 0 0 0 0 0 0 0 0 0 0 0 0 0 0 0 0 0 0 0 0 0 0 0 0 0 0
0 0 0 0 0 0 0 0 0 0 0 0 0 0 0 0 0 0 0 0 0 0 0 0 0 0 0 0 0 0 0 0 0 0 0 0 0 0 0 0 0 0 0 0
0 0 0 0 0 0 0 0 0 0 0 0 0 0 0 0 0 0 0 0 0 0 0 0 0 0 0 0 0 0 0 0 0 0 0 0 0 0 0 0 0 0 0 0
0 0 0 0 0 0 0 0 0 0 0 0 0 0 0 0 0 0 0 0 0 0 0 0 0 0 0 0 0 0 0 0 0 0 0 0 0 0 0 0 0 0 0 0
0 0 0 0 0 0 0 0 0 0 0 0 0 0 0 0 0 0 0 0 0 0 0 0 0 0 0 0 0 0 0 0 0 0 0 0 0 0 0 0 0 0 0 0
0 0 0 0 0 0 0 0 0 0 0 0 0 0 0 0 0 0 0 0 0 0 0 0 0 0 0 0 0 0 0 0 0 0 0 0 0 0 0 0 0 0 0 0
0 0 0 0 0 0 0 0 0 0 0 0 0 0 0 0 0 0 0 0 0 0 0 0 0 0 0 0 0 0 0 0 0 0 0 0 0 0 0 0 0 0 0 0
0 0 0 0 0 0 0 0 0 0 0 0 0 0 0 0 0 0 0 0 0 0 0 0 0 0 0 0 0 0 0 0 0 0 0 0 0 0 0 0 0 0 0 0
0 0 0 0 0 0 0 0 0 0 0 0 0 0 0 0 0 0 0 0 0 0 0 0 0 0 0 0 0 0 0 0 0 0 0 0 0 0 0 0 0 0 0 0
0 0 0 0 0 0 0 0 0 0 0 0 0 0 0 0 0 0 0 0 0 0 0 0 0 0 0 0 0 0 0 0 0 0 0 0 0 0 0 0 0 0 0 0
0 0 0 0 0 0 0 0 0 0 0 0 0 0 0 0 0 0 0 0 0 0 0 0 0 0 0 0 0 0 0 0 0 0 0 0 0 0 0 0 0 0 0 0
0 0 0 0 0 0 0 0 0 0 0 0 0 0 0 0 0 0 0 0 0 0 0 0 0 0 0 0 0 0 0 0 0 0 0 0 0 0 0 0 0 0 0 0
0 0 0 0 0 0 0 0 0 0 0 0 0 0 0 0 0 0 0 0 0 0 0 0 0 0 0 0 0 0 0 0 0 0 0 0 0 0 0 0 0 0 0 0
0 0 0 0 0 0 0 0 0 0 0 0 0 0 0 0 0 0 0 0 0 0 0 0 0 0 0 0 0 0 0 0 0 0 0 0 0 0 0 0 0 0 0 0
Wind_Speed
6 5 4 5 5 4 6 6 7 8 7 8 6 6 7 6 7 7 7 7 7 8 8 7 7 7 7 8 8 8 8 7 7 7 7 6 6 5 4 4 3 3 2 2
4 3 3 5 6 5 6 5 7 7 9 5 5 4 5 6 7 7 8 8 8 8 9 9 8 8 8 8 8 8 7 7 7 7 7 6 6 5 4 4 4 2 2 2
4 4 4 6 5 4 3 3 4 6 6 4 5 6 6 6 6 7 8 9 9 8 8 8 8 7 8 8 8 7 7 7 7 7 7 7 6 5 4 4 4 3 2 2
2 3 5 6 1 2 3 4 4 4 5 4 6 7 6 5 4 6 8 9 9 8 8 8 7 7 7 7 7 6 6 7 7 7 7 7 6 5 4 4 3 3 3 2
1 3 8 5 1 2 2 5 3 4 6 6 6 5 4 3 4 6 7 8 8 8 8 7 7 7 7 7 6 6 6 7 7 7 7 7 7 6 5 4 4 3 3 3
2 3 7 4 1 0 2 6 2 2 5 5 4 4 5 5 7 7 7 7 7 7 7 7 7 6 6 7 7 7 7 7 6 6 6 6 6 6 5 4 4 4 4 4
3 5 8 5 2 2 2 6 3 2 4 3 3 5 7 8 7 7 7 8 7 7 6 7 7 6 6 7 7 7 7 7 7 6 6 6 5 5 4 4 4 4 4 4
4 4 9 2 3 4 6 2 2 3 3 4 6 7 7 7 8 8 8 8 7 7 7 7 6 6 7 7 7 7 6 6 6 6 5 5 5 5 4 4 3 3 4 4
8 7 3 3 4 3 2 2 3 3 4 4 6 7 7 7 7 7 8 8 7 7 8 7 6 5 7 8 7 7 6 6 6 6 5 5 4 4 3 3 3 3 3 3
4 7 4 4 3 3 2 3 3 3 4 4 5 6 7 7 7 7 7 7 7 7 8 8 7 7 6 7 6 6 6 6 5 5 5 5 4 4 3 3 3 3 3 3
5 6 4 3 4 3 2 3 3 4 3 4 4 6 6 6 7 7 8 7 6 7 8 9 8 7 8 7 6 6 5 5 5 4 4 4 4 3 4 3 3 3 2 2
6 5 4 5 3 2 2 4 4 3 4 4 4 5 6 6 6 6 6 6 7 7 8 8 8 8 7 6 6 5 5 5 4 4 4 4 4 4 6 6 7 8 7 5
3 2 3 4 3 1 2 3 3 3 4 5 4 4 5 6 5 5 6 6 7 7 8 8 7 8 7 7 6 5 5 5 4 4 4 4 4 4 4 5 6 7 8 8
2 1 2 2 2 2 2 2 2 3 3 4 4 4 5 5 5 6 6 7 7 7 7 7 7 8 7 6 6 6 5 5 5 3 3 3 4 4 3 4 4 4 6 8
2 2 3 3 2 2 2 2 3 4 4 4 4 4 5 6 6 7 6 7 7 7 7 7 7 8 7 6 6 5 5 4 4 3 3 3 3 3 3 4 3 4 4 5
3 2 2 2 3 3 3 2 3 4 5 5 5 5 5 6 6 6 6 6 6 7 8 7 7 8 7 6 6 5 4 7 6 4 3 3 3 3 3 3 3 3 4 4
1 2 2 3 4 4 3 3 4 5 5 5 6 6 6 6 6 6 6 6 6 6 7 7 7 8 7 6 5 4 4 5 7 5 3 3 3 3 3 3 3 3 3 4
3 3 3 4 4 4 4 4 4 4 5 5 6 5 5 5 6 7 7 7 6 7 7 6 7 7 6 6 5 4 4 3 3 3 3 3 3 3 3 3 3 3 3 4
1 2 2 3 3 3 4 4 4 4 5 5 5 5 5 5 6 6 6 6 6 7 6 6 10 7 6 7 7 4 3 3 3 3 3 5 4 3 3 3 3 3 3 3
2 2 2 3 3 3 4 4 4 4 4 4 5 5 5 6 5 6 6 5 5 5 6 8 7 6 5 6 7 3 3 3 3 3 3 3 3 3 3 3 3 3 3 3
2 3 3 3 4 4 4 4 4 5 5 4 4 5 6 6 6 5 5 6 5 5 6 9 6 5 5 5 6 3 3 3 3 3 3 3 3 3 3 3 3 3 3 3
2 3 3 3 4 4 4 4 4 5 5 5 5 5 6 6 6 5 5 5 5 9 6 4 4 7 8 6 2 2 2 3 3 3 2 3 3 3 3 3 3 3 3 3
3 3 3 4 4 4 5 4 4 4 5 5 6 6 6 6 5 5 6 4 5 9 7 4 8 11 9 4 2 2 3 3 3 3 3 3 3 3 3 3 3 3 3 3
3 3 3 3 3 3 5 5 5 4 5 6 5 6 5 5 4 3 4 8 10 10 5 8 11 11 8 3 3 3 3 3 3 3 3 3 3 3 2 3 3 3 3 4
3 3 3 3 3 3 4 5 5 5 5 5 5 5 4 3 4 5 4 5 9 9 5 7 11 10 5 3 3 3 3 3 3 3 2 2 2 3 3 3 3 3 3 3
3 3 3 3 3 3 3 3 4 4 5 5 5 4 4 3 4 4 4 5 6 8 6 4 5 6 4 3 3 3 3 4 4 3 3 3 3 3 3 3 4 3 3 4
3 3 3 3 3 3 3 3 4 4 5 5 6 5 4 4 4 4 5 4 5 5 4 4 4 4 4 3 3 3 3 3 3 3 3 3 3 3 3 4 4 3 4 4
Wind_Direction
257 266 253 257 268 244 218 220 232 259 264 282 300 297 301 311 318 326 329 330 328 329 325 323 324 325 326 327 327 327 328 329 327 326 324 324 327 323 321 319 313 297 286 283
284 278 267 271 273 257 248 243 248 269 276 281 294 304 310 315 319 323 321 322 323 325 324 320 321 322 324 324 324 323 323 326 328 329 330 329 327 326 328 327 326 317 299 292
281 315 330 275 250 222 231 226 215 243 264 312 314 311 306 305 311 314 315 316 318 318 314 311 310 313 315 316 318 321 323 326 330 331 330 328 327 331 331 330 331 329 317 307
286 358 258 250 239 203 232 251 240 260 284 295 288 294 284 283 299 310 316 317 315 313 311 307 305 312 313 317 319 321 324 327 330 333 328 328 332 330 327 333 334 334 332 322
191 262 276 288 250 173 222 273 241 256 284 299 312 311 294 301 316 306 305 304 303 303 305 307 306 310 316 318 321 323 325 326 328 328 325 328 331 330 328 335 341 342 339 346
164 231 255 260 276 160 98 281 280 264 284 304 336 321 297 323 322 313 312 310 310 312 314 314 311 315 316 316 318 319 319 320 322 323 322 323 324 326 332 338 340 345 352 356
199 237 264 260 262 118 186 266 302 274 280 288 262 255 286 311 316 315 315 315 316 316 315 313 316 317 314 313 312 314 317 320 322 324 323 322 327 333 342 345 352 0 0 360
178 218 257 229 140 188 229 268 278 277 279 279 277 288 302 311 317 323 324 324 324 322 319 320 323 321 314 311 315 321 320 320 322 326 327 331 335 337 345 352 357 2 5 3
197 220 244 200 206 229 228 253 270 278 290 290 294 301 309 314 317 320 323 323 325 323 321 324 327 325 316 317 323 323 322 323 326 330 332 334 334 337 348 357 355 350 356 358
253 266 262 251 252 268 258 262 285 290 294 296 293 299 307 312 318 321 322 324 326 327 327 326 328 326 318 319 323 322 321 324 329 332 334 339 336 336 341 346 343 343 349 345
256 277 301 275 244 252 276 291 302 304 300 294 294 300 303 308 312 315 319 324 327 328 324 322 325 326 325 326 327 325 322 326 331 332 330 332 335 338 335 333 335 338 330 326
234 235 227 264 268 251 267 285 289 300 309 309 298 297 305 305 306 310 315 321 324 325 323 323 327 326 327 330 330 325 324 331 332 330 328 331 332 338 347 347 352 355 354 351
246 271 243 265 283 257 258 279 296 294 291 300 303 299 303 305 310 313 317 322 321 320 320 322 326 327 329 331 331 328 322 324 326 328 329 330 330 332 334 344 356 1 359 357
254 276 276 269 275 294 292 300 310 309 302 296 299 306 308 309 312 316 317 317 315 317 320 323 325 324 326 329 329 329 327 324 325 322 322 321 322 325 325 329 337 345 351 355
272 243 246 279 295 309 313 317 320 315 314 314 313 313 315 313 312 312 314 317 320 323 324 327 326 324 327 329 330 328 327 326 323 323 323 322 324 327 328 330 331 333 339 346
304 299 283 283 288 303 314 312 305 305 310 311 314 312 309 305 305 309 315 321 323 321 321 322 321 322 328 329 330 329 326 328 331 328 327 327 328 330 331 331 332 333 335 336
278 298 296 292 293 297 296 290 287 293 301 303 304 307 310 311 313 314 316 318 313 307 310 314 315 320 325 325 323 321 320 322 330 332 324 321 322 324 320 321 324 327 329 332
226 248 252 253 267 284 294 296 294 297 298 299 307 310 310 309 307 307 311 315 317 315 315 315 317 317 322 325 324 318 316 317 322 322 321 319 323 327 326 326 325 324 327 334
276 273 279 279 278 279 286 293 296 297 300 305 306 302 299 297 296 299 306 311 314 313 313 314 322 327 324 322 325 315 313 317 323 325 324 326 335 336 331 326 323 324 327 335
319 311 306 303 305 295 292 296 299 300 301 300 298 298 300 299 298 301 303 297 285 284 296 308 315 314 316 315 322 316 317 319 324 325 328 327 328 329 329 327 325 324 328 331
313 313 314 313 312 308 300 299 300 301 305 303 293 292 294 297 298 297 298 301 301 305 309 315 320 316 314 315 319 320 321 323 322 318 317 319 322 323 323 325 326 328 329 332
303 304 305 307 308 309 310 306 298 297 302 302 297 294 296 299 302 298 282 278 296 314 319 309 309 315 320 326 330 324 319 317 313 313 313 315 316 316 317 320 322 326 329 330
301 300 302 303 302 303 308 306 298 297 297 298 299 299 296 295 296 298 302 301 305 314 319 309 315 322 331 345 335 322 317 314 310 309 308 308 307 306 309 315 318 319 319 319
307 306 302 304 306 308 308 307 306 300 293 293 291 291 293 298 296 279 283 305 315 318 316 315 322 326 337 339 322 316 310 304 299 295 297 301 302 302 303 305 308 310 310 310
306 303 305 311 309 302 299 307 310 308 308 305 304 301 294 286 288 298 301 304 312 319 315 317 324 328 332 314 308 303 300 296 295 297 293 299 300 298 297 296 295 297 300 299
309 304 298 293 291 296 303 307 308 309 311 311 311 308 304 300 297 299 301 303 304 314 315 308 310 317 313 307 304 302 300 305 313 314 304 299 295 293 292 293 293 292 291 290
311 311 312 312 310 307 304 302 303 306 308 306 306 307 309 311 310 309 308 308 309 309 308 309 308 306 305 304 302 302 300 299 297 296 294 290 286 285 285 285 286 287 288 287